Location: Monroe
(41.9160°N, 83.3980°W)
Time: 01:22:19
(UTC-05:00)

Amateur Radio Satellites - All Passes

Search period start: 26 November 2014 00:52
Search period end: 27 November 2014 00:52
Location: Monroe, 41.9160°N, 83.3980°W

Satellite Date Start Highest point End Downlink Frequencies (MHz)
Time Altitude Azimuth
UNISAT 6 26 Nov 00:59:26 01:00:30 11° 299° (WNW) 01:01:35 437.425
BUGSAT 1 26 Nov 00:59:33 01:01:50 15° 296° (WNW) 01:04:05 437.445
MaSat-1 26 Nov 01:01:09 01:03:28 85° 63° (ENE) 01:05:51 437.345
ITUPSAT 1 26 Nov 01:04:46 01:09:33 73° 74° (ENE) 01:14:23 437.325
ISS 26 Nov 01:08:19 01:11:21 34° 335° (NNW) 01:14:24 145.825
YUBILEINY 26 Nov 01:09:48 01:14:09 15° 75° (ENE) 01:18:28 435.215
SWISSCUBE 26 Nov 01:15:47 01:20:35 80° 257° (WSW) 01:25:26 437.505
STARS 26 Nov 01:36:18 01:39:43 23° 66° (ENE) 01:43:09 437.465
Oscar 19 26 Nov 01:37:39 01:42:27 38° 98° (E) 01:47:14 437.125/150
BEESAT 26 Nov 01:47:17 01:51:48 41° 262° (W) 01:56:22 436.000
RS-15 26 Nov 01:50:53 02:02:09 83° 240° (WSW) 02:13:55 29.354- 29.394
AUBIESAT-1 26 Nov 02:00:57 02:03:13 14° 266° (W) 02:05:36 437.475
M-CUBED/EXP-1 PRIME 26 Nov 02:07:10 02:08:31 11° 267° (W) 02:09:55 437.505
KKS-1 26 Nov 02:15:28 02:19:55 85° 76° (ENE) 02:24:24 437.445
ITAMSAT 1 26 Nov 02:30:23 02:35:21 45° 99° (E) 02:40:17 435.822/435.867
ITUPSAT 1 26 Nov 02:46:08 02:47:58 12° 271° (W) 02:49:48 437.325
ISS 26 Nov 02:46:38 02:48:44 16° 354° (N) 02:50:49 145.825
YUBILEINY 26 Nov 03:00:37 03:09:24 79° 95° (E) 03:18:11 435.215
Gurwin Techsat 1B 26 Nov 03:01:55 03:07:07 53° 100° (E) 03:12:16 435.225
STARS 26 Nov 03:12:00 03:16:01 34° 262° (W) 03:20:03 437.465
Oscar 19 26 Nov 03:17:19 03:21:37 27° 294° (WNW) 03:25:54 437.125/150
MOZHAYETS 4 26 Nov 03:22:13 03:24:18 13° 61° (ENE) 03:26:22
HORYU 2 26 Nov 03:23:44 03:27:53 36° 98° (E) 03:32:02 437.375
RS-15 26 Nov 04:05:23 04:12:52 21° 260° (W) 04:20:34 29.354- 29.394
PCSat 26 Nov 04:10:05 04:14:45 28° 48° (NE) 04:19:23 145.827
ITAMSAT 1 26 Nov 04:10:31 04:14:33 23° 296° (WNW) 04:18:34 435.822/435.867
SO-50 26 Nov 04:17:09 04:21:39 86° 122° (ESE) 04:26:20 436.795
AO-7 26 Nov 04:20:47 04:28:44 45° 100° (E) 04:36:37 29.400- 29.500
ISS 26 Nov 04:23:48 04:26:18 20° 15° (NNE) 04:28:47 145.825
PRISM 26 Nov 04:34:38 04:36:41 13° 62° (ENE) 04:38:44 437.425
JAS-2 26 Nov 04:40:07 04:45:15 22° 88° (E) 04:49:58 435.910
Gurwin Techsat 1B 26 Nov 04:42:46 04:46:41 21° 297° (WNW) 04:50:35 435.225
BEESAT 3 26 Nov 04:49:37 04:53:35 39° 51° (NE) 04:57:30 437.485
MOZHAYETS 4 26 Nov 04:56:20 05:00:54 72° 258° (WSW) 05:05:33
YUBILEINY 26 Nov 05:00:31 05:07:11 23° 296° (WNW) 05:13:53 435.215
HORYU 2 26 Nov 05:00:52 05:04:21 23° 294° (WNW) 05:07:50 437.375
CUBESAT XI-V 26 Nov 05:04:12 05:05:45 12° 60° (ENE) 05:07:18 437.345
BEESAT 2 26 Nov 05:04:59 05:09:07 50° 53° (NE) 05:13:10 435.950
O/OREOS (USA 219) 26 Nov 05:31:08 05:34:34 22° 102° (ESE) 05:38:00 437.305
STRAND 1 26 Nov 05:32:52 05:36:58 25° 65° (ENE) 05:41:03 437.568
AIST 2 26 Nov 05:39:33 05:43:49 57° 54° (NE) 05:48:00 435.215
CUTE-I 26 Nov 05:51:42 05:55:25 19° 92° (E) 05:59:06 437.470
PCSat 26 Nov 05:53:11 05:58:22 47° 247° (WSW) 06:03:31 145.827
SO-50 26 Nov 06:00:00 06:02:52 16° 322° (NW) 06:05:47 436.795
ISS 26 Nov 06:00:04 06:03:22 75° 34° (NNE) 06:06:40 145.825
PRISM 26 Nov 06:07:36 06:11:44 59° 259° (W) 06:15:56 437.425
AO-7 26 Nov 06:13:42 06:21:26 44° 299° (WNW) 06:29:09 29.400- 29.500
JAS-2 26 Nov 06:23:55 06:31:01 66° 289° (WNW) 06:37:14 435.910
AIST 1 26 Nov 06:25:51 06:29:29 25° 73° (ENE) 06:33:05
BEESAT 3 26 Nov 06:28:24 06:31:34 21° 248° (WSW) 06:34:41 437.485
CUBESAT XI-V 26 Nov 06:37:45 06:42:29 85° 257° (WSW) 06:47:14 437.345
BEESAT 2 26 Nov 06:44:23 06:47:00 16° 250° (WSW) 06:49:36 435.950
Cubesat XI-IV 26 Nov 06:49:08 06:54:27 65° 102° (ESE) 06:59:42 437.490
GONETS M04 26 Nov 06:59:04 07:04:08 17° 76° (ENE) 07:09:13
O/OREOS (USA 219) 26 Nov 07:09:36 07:13:44 36° 299° (WNW) 07:17:53 437.305
STRAND 1 26 Nov 07:11:01 07:15:53 43° 261° (W) 07:20:47 437.568
AIST 2 26 Nov 07:19:33 07:21:58 15° 251° (WSW) 07:24:22 435.215
CUTE-I 26 Nov 07:30:38 07:35:50 55° 289° (WNW) 07:40:59 437.470
ISS 26 Nov 07:38:00 07:39:37 13° 230° (SW) 07:41:14 145.825
AIST 1 26 Nov 08:03:24 08:07:06 27° 271° (W) 08:10:46
AO-7 26 Nov 08:11:28 08:12:01 10° 321° (NW) 08:12:34 29.400- 29.500
JAS-2 26 Nov 08:11:32 08:14:30 13° 310° (NW) 08:17:22 435.910
HO-68 26 Nov 08:28:05 08:33:43 24° 93° (E) 08:39:17 435.675
Cubesat XI-IV 26 Nov 08:30:32 08:33:59 18° 299° (WNW) 08:37:26 437.490
GOMX 1 26 Nov 08:42:04 08:44:01 13° 91° (E) 08:45:59 467.674
CUTE 1.7 & AOD 2 26 Nov 08:45:42 08:49:02 22° 94° (E) 08:52:22 437.475
GONETS M04 26 Nov 08:50:44 08:59:33 86° 96° (E) 09:08:27
BRITE-PL 26 Nov 09:10:13 09:14:04 37° 98° (E) 09:17:58 437.365/2234.400
UKube-1 26 Nov 09:13:43 09:15:22 12° 90° (E) 09:17:00 .
ANTELSAT 26 Nov 09:13:56 09:16:21 15° 64° (ENE) 09:18:47 437.575/2403.000
SEEDS 26 Nov 09:17:54 09:21:59 42° 98° (E) 09:26:03 437.485
Oscar 11 26 Nov 09:23:33 09:26:39 19° 93° (E) 09:29:45 145.826/435.025
POLYITAN 1 26 Nov 09:28:46 09:31:14 15° 64° (ENE) 09:33:42 437.675
QB50P2 26 Nov 09:30:33 09:33:08 16° 64° (ENE) 09:35:44 145.880/145.840
AAUSAT CUBESAT 2 26 Nov 09:34:15 09:38:22 48° 99° (E) 09:42:28 437.432
DOVE 4 26 Nov 09:35:14 09:39:09 38° 98° (E) 09:43:09 437.250
DUCHIFAT 1 26 Nov 09:36:07 09:38:58 18° 65° (ENE) 09:41:50 145.980
DELFI C3 26 Nov 09:38:51 09:42:09 23° 94° (E) 09:45:26 145.870
CUBEBUG 2 26 Nov 09:42:42 09:45:38 18° 93° (E) 09:48:37 437.445
UWE-3 26 Nov 09:42:45 09:45:19 16° 92° (E) 09:47:54 435.000/436.395/437.385
CANX-2 26 Nov 09:46:11 09:50:28 72° 285° (WNW) 09:54:45 2200.000
DX 1 26 Nov 09:47:44 09:51:32 29° 97° (E) 09:55:19 434.975-435.025
COMPASS 1 26 Nov 09:49:38 09:53:54 83° 103° (ESE) 09:58:09 437.405
NANOSAT C BR1 26 Nov 09:54:41 09:58:18 28° 69° (ENE) 10:01:55 145.865
HUMSAT D 26 Nov 09:59:33 10:01:00 12° 90° (E) 10:02:26 437.325/437.525
QB50P1 26 Nov 10:04:19 10:08:11 35° 70° (ENE) 10:12:04 145.935-145.965
TIGRISAT 26 Nov 10:05:58 10:10:06 51° 73° (ENE) 10:14:14 435.000
CINEMA 3 26 Nov 10:09:08 10:13:18 55° 100° (E) 10:17:34 145.822/145.860
BUGSAT 1 26 Nov 10:13:27 10:17:22 37° 71° (ENE) 10:21:15 437.445
HO-68 26 Nov 10:14:48 10:21:54 65° 291° (WNW) 10:28:56 435.675
ZACube-1 26 Nov 10:16:18 10:20:04 30° 97° (E) 10:23:54 437.345
GOMX 1 26 Nov 10:18:26 10:22:28 50° 287° (WNW) 10:26:34 467.674
VELOX 1 26 Nov 10:19:04 10:22:23 20° 94° (E) 10:25:41 145.980
UNISAT 6 26 Nov 10:19:39 10:23:54 76° 75° (ENE) 10:28:11 437.425
CUTE 1.7 & AOD 2 26 Nov 10:21:10 10:25:01 33° 290° (WNW) 10:28:52 437.475
POPSAT HIP 1 26 Nov 10:28:45 10:32:58 66° 74° (ENE) 10:37:12 437.405
AISAT 26 Nov 10:44:53 10:49:03 39° 98° (E) 10:53:10 437.250
UKube-1 26 Nov 10:47:38 10:51:56 62° 287° (WNW) 10:56:11 .
ANTELSAT 26 Nov 10:48:36 10:52:45 51° 260° (W) 10:56:56 437.575/2403.000
BRITE-PL 26 Nov 10:49:34 10:52:23 18° 294° (WNW) 10:55:12 437.365/2234.400
FUNcube-1 26 Nov 10:50:57 10:55:11 75° 102° (ESE) 10:59:30 145.935
GONETS M04 26 Nov 10:51:14 10:57:33 21° 298° (WNW) 11:03:56
SEEDS 26 Nov 10:54:38 10:57:30 18° 295° (WNW) 11:00:22 437.485
CUBEBUG 1 26 Nov 10:57:25 11:00:33 19° 93° (E) 11:03:40 437.445
Oscar 11 26 Nov 10:58:55 11:02:58 39° 289° (WNW) 11:07:00 145.826/435.025
POLYITAN 1 26 Nov 11:02:39 11:06:47 50° 260° (W) 11:10:56 437.675
QB50P2 26 Nov 11:04:34 11:08:41 48° 260° (W) 11:12:49 145.880/145.840
SO-50 26 Nov 11:08:59 11:11:55 16° 37° (NE) 11:14:51 436.795
DUCHIFAT 1 26 Nov 11:10:30 11:14:32 42° 261° (W) 11:18:35 145.980
AAUSAT CUBESAT 2 26 Nov 11:11:08 11:13:39 16° 296° (WNW) 11:16:11 437.432
DOVE 4 26 Nov 11:13:49 11:16:42 18° 294° (WNW) 11:19:38 437.250
DELFI C3 26 Nov 11:13:51 11:17:27 29° 290° (WNW) 11:21:03 145.870
UWE-3 26 Nov 11:18:02 11:22:05 45° 287° (WNW) 11:26:13 435.000/436.395/437.385
CUBEBUG 2 26 Nov 11:18:33 11:22:30 39° 288° (WNW) 11:26:32 437.445
50 SAT 26 Nov 11:19:40 11:23:45 81° 103° (ESE) 11:27:50 437.505
DX 1 26 Nov 11:24:06 11:27:40 26° 293° (WNW) 11:31:14 434.975-435.025
NANOSAT C BR1 26 Nov 11:30:35 11:34:08 26° 265° (W) 11:37:42 145.865
HUMSAT D 26 Nov 11:33:04 11:37:10 59° 286° (WNW) 11:41:18 437.325/437.525
QB50P1 26 Nov 11:41:01 11:44:11 20° 266° (W) 11:47:21 145.935-145.965
TIGRISAT 26 Nov 11:45:04 11:47:11 14° 269° (W) 11:49:18 435.000
CINEMA 3 26 Nov 11:47:58 11:50:06 14° 296° (WNW) 11:52:15 145.822/145.860
BUGSAT 1 26 Nov 11:49:53 11:52:58 19° 266° (W) 11:56:03 437.445
ZACube-1 26 Nov 11:52:57 11:56:19 23° 292° (WNW) 11:59:44 437.345
ESTCUBE 1 26 Nov 11:54:27 11:59:01 84° 103° (ESE) 12:03:33 437.505/2401.250
VELOX 1 26 Nov 11:55:01 11:59:06 37° 290° (WNW) 12:03:08 145.980
HO-68 26 Nov 12:05:08 12:08:15 13° 311° (NW) 12:11:21 435.675
POPSAT HIP 1 26 Nov 12:08:18 12:09:18 11° 270° (W) 12:10:19 437.405
TISAT 1 26 Nov 12:08:39 12:12:19 28° 96° (E) 12:15:57 437.305
SPROUT 26 Nov 12:19:25 12:23:19 33° 97° (E) 12:27:12 437.525
AISAT 26 Nov 12:22:11 12:25:25 20° 295° (WNW) 12:28:38 437.250
FUNcube-1 26 Nov 12:30:02 12:30:58 11° 298° (WNW) 12:31:54 145.935
CUBEBUG 1 26 Nov 12:33:02 12:37:05 38° 290° (WNW) 12:41:05 437.445
Gurwin Techsat 1B 26 Nov 12:47:31 12:49:30 12° 57° (ENE) 12:51:29 435.225
SO-50 26 Nov 12:48:18 12:53:12 84° 57° (ENE) 12:58:07 436.795
Oscar 19 26 Nov 12:54:49 12:59:48 57° 72° (ENE) 13:04:49 437.125/150
ITUPSAT 1 26 Nov 13:06:19 13:09:40 19° 92° (E) 13:13:00 437.325
YUBILEINY 26 Nov 13:10:45 13:18:48 39° 72° (ENE) 13:26:45 435.215
SWISSCUBE 26 Nov 13:16:37 13:20:37 26° 95° (E) 13:24:35 437.505
AO-7 26 Nov 13:32:41 13:36:52 15° 45° (NE) 13:41:03 29.400- 29.500
ESTCUBE 1 26 Nov 13:34:04 13:35:12 11° 300° (WNW) 13:36:20 437.505/2401.250
AUBIESAT-1 26 Nov 13:40:54 13:45:38 45° 103° (ESE) 13:50:13 437.475
CUSAT 1 26 Nov 13:40:57 13:43:32 44° 282° (WNW) 13:46:03 437.405
TISAT 1 26 Nov 13:44:38 13:48:03 24° 292° (WNW) 13:51:27 437.305
M-CUBED/EXP-1 PRIME 26 Nov 13:46:21 13:51:14 56° 105° (ESE) 13:55:58 437.505
BEESAT 26 Nov 13:47:08 13:51:48 48° 100° (E) 13:56:24 436.000
ITAMSAT 1 26 Nov 13:48:36 13:53:48 72° 73° (ENE) 13:59:00 435.822/435.867
SPROUT 26 Nov 13:55:56 13:59:13 22° 293° (WNW) 14:02:29 437.525
PHONESAT 2.4 26 Nov 14:04:50 14:06:38 13° 147° (SSE) 14:08:27 2401.200-2431.200
KKS-1 26 Nov 14:07:47 14:10:33 16° 92° (E) 14:13:18 437.445
DANDE 26 Nov 14:09:20 14:11:31 21° 285° (WNW) 14:13:36 436.750
RS-15 26 Nov 14:11:51 14:15:08 12° 95° (E) 14:18:23 29.354- 29.394
VERMONT LUNAR 26 Nov 14:13:06 14:15:45 19° 151° (SSE) 14:18:25 437.305
HORYU 2 26 Nov 14:22:51 14:26:52 35° 69° (ENE) 14:30:55 437.375
Gurwin Techsat 1B 26 Nov 14:23:19 14:28:38 85° 75° (ENE) 14:33:59 435.225
SO-50 26 Nov 14:31:09 14:33:05 12° 253° (WSW) 14:35:02 436.795
MaSat-1 26 Nov 14:31:15 14:32:23 12° 108° (ESE) 14:33:29 437.345
Oscar 19 26 Nov 14:36:12 14:39:30 17° 269° (W) 14:42:50 437.125/150
ITUPSAT 1 26 Nov 14:43:12 14:47:49 48° 289° (WNW) 14:52:24 437.325
JAS-2 26 Nov 14:53:57 14:57:39 14° 51° (NE) 15:01:21 435.910
SWISSCUBE 26 Nov 14:54:11 14:58:31 34° 292° (WNW) 15:02:48 437.505
STARS 26 Nov 15:01:29 15:05:39 40° 99° (E) 15:09:47 437.465
YUBILEINY 26 Nov 15:07:32 15:15:41 47° 272° (W) 15:23:47 435.215
AUBIESAT-1 26 Nov 15:16:25 15:20:18 24° 300° (WNW) 15:24:07 437.475
AO-7 26 Nov 15:19:54 15:28:00 62° 66° (ENE) 15:36:10 29.400- 29.500
M-CUBED/EXP-1 PRIME 26 Nov 15:22:17 15:25:49 20° 302° (WNW) 15:29:20 437.505
BEESAT 26 Nov 15:25:53 15:29:16 20° 296° (WNW) 15:32:39 436.000
ITAMSAT 1 26 Nov 15:31:08 15:33:48 14° 270° (W) 15:36:28 435.822/435.867
O/OREOS (USA 219) 26 Nov 15:39:36 15:43:54 45° 63° (ENE) 15:48:12 437.305
PHONESAT 2.4 26 Nov 15:41:20 15:44:52 43° 162° (SSE) 15:48:24 2401.200-2431.200
KKS-1 26 Nov 15:43:11 15:47:27 47° 288° (WNW) 15:51:42 437.445
VERMONT LUNAR 26 Nov 15:50:16 15:53:49 55° 167° (SSE) 15:57:23 437.305
HORYU 2 26 Nov 16:00:14 16:03:38 22° 266° (W) 16:07:04 437.375
MaSat-1 26 Nov 16:04:12 16:06:42 25° 300° (WNW) 16:09:02 437.345
Gurwin Techsat 1B 26 Nov 16:07:22 16:09:15 12° 272° (W) 16:11:08 435.225
RS-15 26 Nov 16:14:19 16:25:03 64° 115° (ESE) 16:35:46 29.354- 29.394
JAS-2 26 Nov 16:33:37 16:41:08 62° 70° (ENE) 16:48:52 435.910
Cubesat XI-IV 26 Nov 16:34:24 16:37:31 16° 60° (ENE) 16:40:38 437.490
STARS 26 Nov 16:38:43 16:41:51 20° 295° (WNW) 16:44:59 437.465
MOZHAYETS 4 26 Nov 16:51:47 16:55:44 27° 95° (E) 16:59:39
CUTE-I 26 Nov 17:13:38 17:18:22 33° 67° (ENE) 17:23:07 437.470
AO-7 26 Nov 17:14:15 17:21:14 30° 265° (W) 17:28:18 29.400- 29.500
PHONESAT 2.4 26 Nov 17:19:47 17:23:30 72° 179° (S) 17:27:13 2401.200-2431.200
O/OREOS (USA 219) 26 Nov 17:20:00 17:22:55 17° 260° (W) 17:25:51 437.305
VERMONT LUNAR 26 Nov 17:28:35 17:32:11 70° 184° (S) 17:35:48 437.305
PRISM 26 Nov 17:51:27 17:54:31 19° 94° (E) 17:57:33 437.425
Cubesat XI-IV 26 Nov 18:11:36 18:16:58 76° 257° (WSW) 18:22:21 437.490
JAS-2 26 Nov 18:20:03 18:26:30 29° 269° (W) 18:33:10 435.910
RS-15 26 Nov 18:27:45 18:37:57 43° 320° (NW) 18:48:18 29.354- 29.394
MOZHAYETS 4 26 Nov 18:28:50 18:32:56 31° 291° (WNW) 18:37:02
CUBESAT XI-V 26 Nov 18:35:06 18:38:52 24° 94° (E) 18:42:34 437.345
PCSat 26 Nov 18:53:15 18:57:14 21° 106° (ESE) 19:01:13 145.827
CUTE-I 26 Nov 18:53:37 18:58:23 33° 264° (W) 19:03:11 437.470
AIST 1 26 Nov 18:57:13 18:59:44 15° 85° (E) 19:02:15
HO-68 26 Nov 18:58:14 19:03:16 21° 55° (NE) 19:08:17 435.675
PHONESAT 2.4 26 Nov 18:58:34 19:02:10 47° 196° (SSW) 19:05:44 2401.200-2431.200
GONETS M04 26 Nov 19:00:55 19:09:16 44° 73° (ENE) 19:17:31
VERMONT LUNAR 26 Nov 19:07:08 19:10:27 34° 201° (SSW) 19:13:46 437.305
STRAND 1 26 Nov 19:20:56 19:26:01 63° 102° (ESE) 19:31:03 437.568
PRISM 26 Nov 19:26:16 19:30:11 36° 290° (WNW) 19:34:03 437.425
CUTE 1.7 & AOD 2 26 Nov 19:40:02 19:42:49 17° 65° (ENE) 19:45:36 437.475
AIST 2 26 Nov 19:41:36 19:42:44 11° 107° (ESE) 19:43:52 435.215
GOMX 1 26 Nov 19:50:33 19:53:40 18° 66° (ENE) 19:56:41 467.674
UKube-1 26 Nov 20:09:55 20:11:42 12° 61° (ENE) 20:13:29 .
SEEDS 26 Nov 20:11:01 20:14:43 31° 70° (ENE) 20:18:28 437.485
CUBESAT XI-V 26 Nov 20:12:08 20:16:22 35° 290° (WNW) 20:20:34 437.345
Oscar 11 26 Nov 20:19:34 20:22:16 17° 64° (ENE) 20:24:58 145.826/435.025
BRITE-PL 26 Nov 20:21:05 20:25:53 50° 73° (ENE) 20:30:21 437.365/2234.400
BEESAT 3 26 Nov 20:22:38 20:26:42 69° 120° (ESE) 20:30:51 437.485
AAUSAT CUBESAT 2 26 Nov 20:26:15 20:30:01 34° 71° (ENE) 20:33:49 437.432
DELFI C3 26 Nov 20:29:02 20:31:36 16° 65° (ENE) 20:34:09 145.870
AIST 1 26 Nov 20:32:43 20:36:57 47° 282° (WNW) 20:41:14
PCSat 26 Nov 20:34:54 20:40:12 55° 304° (NW) 20:45:33 145.827
PHONESAT 2.4 26 Nov 20:38:13 20:40:26 15° 212° (SSW) 20:42:40 2401.200-2431.200
BEESAT 2 26 Nov 20:38:39 20:42:47 89° 304° (NW) 20:46:59 435.950
CANX-2 26 Nov 20:39:34 20:43:47 85° 76° (ENE) 20:48:02 2200.000
DOVE 4 26 Nov 20:41:29 20:45:48 43° 72° (ENE) 20:49:55 437.250
UWE-3 26 Nov 20:41:38 20:43:50 14° 64° (ENE) 20:46:01 435.000/436.395/437.385
COMPASS 1 26 Nov 20:41:43 20:45:48 59° 74° (ENE) 20:49:56 437.405
CUBEBUG 2 26 Nov 20:42:29 20:45:10 17° 65° (ENE) 20:47:49 437.445
HO-68 26 Nov 20:42:55 20:50:07 83° 254° (WSW) 20:57:22 435.675
DX 1 26 Nov 20:43:59 20:47:43 28° 68° (ENE) 20:51:27 434.975-435.025
RS-15 26 Nov 20:46:23 20:54:21 22° 353° (N) 21:02:28 29.354- 29.394
GONETS M04 26 Nov 20:57:56 21:06:00 42° 273° (W) 21:14:01
STRAND 1 26 Nov 21:01:25 21:04:41 17° 299° (WNW) 21:07:56 437.568
CINEMA 3 26 Nov 21:11:37 21:15:53 54° 74° (ENE) 21:20:01 145.822/145.860
ZACube-1 26 Nov 21:13:28 21:16:57 26° 69° (ENE) 21:20:24 437.345
CUTE 1.7 & AOD 2 26 Nov 21:14:25 21:18:25 42° 262° (W) 21:22:27 437.475
AIST 2 26 Nov 21:16:30 21:20:43 74° 304° (NW) 21:25:02 435.215
VELOX 1 26 Nov 21:17:45 21:21:05 21° 65° (ENE) 21:24:25 145.980
GOMX 1 26 Nov 21:26:55 21:31:31 47° 261° (W) 21:35:51 467.674
UKube-1 26 Nov 21:42:58 21:47:18 69° 258° (WSW) 21:51:39 .
AISAT 26 Nov 21:43:33 21:47:42 38° 70° (ENE) 21:51:51 437.250
SEEDS 26 Nov 21:47:22 21:50:36 22° 266° (W) 21:53:52 437.485
FUNcube-1 26 Nov 21:47:31 21:51:39 61° 74° (ENE) 21:55:46 145.935
Oscar 11 26 Nov 21:53:55 21:58:03 47° 261° (W) 22:02:14 145.826/435.025
CUBEBUG 1 26 Nov 21:54:37 21:57:41 19° 65° (ENE) 22:00:46 437.445
TIGRISAT 26 Nov 21:59:58 22:00:58 11° 90° (E) 22:01:57 435.000
BRITE-PL 26 Nov 22:01:19 22:04:35 18° 267° (W) 22:07:44 437.365/2234.400
DELFI C3 26 Nov 22:02:42 22:06:33 42° 261° (W) 22:10:28 145.870
AAUSAT CUBESAT 2 26 Nov 22:02:47 22:05:48 19° 267° (W) 22:08:50 437.432
BEESAT 3 26 Nov 22:02:50 22:05:24 16° 319° (NW) 22:08:00 437.485
50 SAT 26 Nov 22:08:59 22:12:54 53° 74° (ENE) 22:16:50 437.505
UNISAT 6 26 Nov 22:12:34 22:15:17 16° 92° (E) 22:18:01 437.425
UWE-3 26 Nov 22:15:50 22:19:58 53° 260° (W) 22:24:04 435.000/436.395/437.385
POPSAT HIP 1 26 Nov 22:17:11 22:17:45 10° 89° (E) 22:18:19 437.405
CUBEBUG 2 26 Nov 22:17:30 22:21:34 43° 261° (W) 22:25:34 437.445
BEESAT 2 26 Nov 22:19:42 22:21:43 13° 322° (NW) 22:23:44 435.950
DX 1 26 Nov 22:20:11 22:23:54 27° 264° (W) 22:27:39 434.975-435.025
COMPASS 1 26 Nov 22:20:31 22:21:56 11° 270° (W) 22:23:20 437.405
DOVE 4 26 Nov 22:20:39 22:23:44 18° 267° (W) 22:26:45 437.250
PCSat 26 Nov 22:22:57 22:24:52 12° 325° (NW) 22:26:47 145.827
HUMSAT D 26 Nov 22:25:41 22:29:48 80° 257° (WSW) 22:33:57 437.325/437.525
HO-68 26 Nov 22:35:16 22:38:49 14° 272° (W) 22:42:23 435.675
CUSAT 1 26 Nov 22:36:08 22:37:46 11° 70° (ENE) 22:39:31 437.405
ANTELSAT 26 Nov 22:40:25 22:44:24 31° 97° (E) 22:48:26 437.575/2403.000
ISS 26 Nov 22:42:41 22:45:04 19° 133° (SE) 22:47:29 145.825
POLYITAN 1 26 Nov 22:48:43 22:52:13 25° 95° (E) 22:55:42 437.675
ZACube-1 26 Nov 22:49:43 22:53:16 26° 264° (W) 22:56:48 437.345
QB50P2 26 Nov 22:50:20 22:53:54 26° 96° (E) 22:57:27 145.880/145.840
CINEMA 3 26 Nov 22:51:20 22:53:24 13° 269° (W) 22:55:26 145.822/145.860
VELOX 1 26 Nov 22:53:14 22:57:25 39° 262° (W) 23:01:37 145.980
ESTCUBE 1 26 Nov 22:54:26 22:58:59 81° 76° (ENE) 23:03:34 437.505/2401.250
DUCHIFAT 1 26 Nov 22:55:43 22:59:24 29° 96° (E) 23:03:04 145.980
AIST 2 26 Nov 22:58:27 23:00:08 12° 324° (NW) 23:01:49 435.215
TISAT 1 26 Nov 23:02:05 23:05:31 24° 67° (ENE) 23:08:57 437.305
RS-15 26 Nov 23:02:17 23:11:43 30° 29° (NNE) 23:21:26 29.354- 29.394
DANDE 26 Nov 23:04:20 23:07:29 18° 74° (ENE) 23:11:13 436.750
SPROUT 26 Nov 23:14:22 23:18:03 28° 69° (ENE) 23:21:45 437.525
NANOSAT C BR1 26 Nov 23:14:59 23:19:05 48° 100° (E) 23:23:09 145.865
AISAT 26 Nov 23:21:08 23:24:28 20° 266° (W) 23:27:48 437.250
QB50P1 26 Nov 23:24:57 23:29:09 63° 101° (ESE) 23:33:20 145.935-145.965
FUNcube-1 26 Nov 23:27:15 23:28:24 11° 270° (W) 23:29:34 145.935
CUBEBUG 1 26 Nov 23:29:30 23:33:44 44° 261° (W) 23:38:00 437.445
BUGSAT 1 26 Nov 23:31:01 23:35:04 60° 101° (E) 23:39:03 437.445
TIGRISAT 26 Nov 23:33:44 23:38:09 73° 285° (WNW) 23:42:40 435.000
50 SAT 26 Nov 23:47:00 23:48:33 12° 269° (W) 23:50:06 437.505
UNISAT 6 26 Nov 23:48:01 23:52:20 50° 287° (WNW) 23:56:43 437.425
POPSAT HIP 1 26 Nov 23:49:54 23:54:06 67° 285° (WNW) 23:58:17 437.405
MaSat-1 27 Nov 00:07:47 00:09:28 17° 58° (ENE) 00:11:10 437.345
ITUPSAT 1 27 Nov 00:13:41 00:17:28 24° 65° (ENE) 00:21:16 437.325
CUSAT 1 27 Nov 00:16:15 00:21:00 87° 261° (W) 00:27:26 437.405
ANTELSAT 27 Nov 00:17:24 00:21:05 26° 292° (WNW) 00:24:50 437.575/2403.000
ISS 27 Nov 00:18:15 00:21:28 52° 330° (NNW) 00:24:42 145.825
SWISSCUBE 27 Nov 00:23:43 00:27:57 32° 68° (ENE) 00:32:12 437.505
POLYITAN 1 27 Nov 00:24:31 00:28:08 28° 291° (WNW) 00:31:45 437.675
QB50P2 27 Nov 00:26:12 00:29:46 27° 292° (WNW) 00:33:20 145.880/145.840
AUBIESAT-1 27 Nov 00:30:45 00:34:47 59° 68° (ENE) 00:39:12 437.475
DUCHIFAT 1 27 Nov 00:31:45 00:35:09 24° 292° (WNW) 00:38:33 145.980
M-CUBED/EXP-1 PRIME 27 Nov 00:36:37 00:40:41 75° 70° (ENE) 00:45:11 437.505
TISAT 1 27 Nov 00:37:28 00:41:14 30° 263° (W) 00:45:00 437.305
